IK8WEQ Weather Reports


time (UTC)temp
F
wind
direction
speed
knots
gust
knots
rain 1hr
in
rain 24hr
in
rain mn
in
humidity
%
barometer
mb
20260504050427 59 174 0.0 0.0 0.00 0.00 0.00 81 1020.4
20260504045937 59 144 0.0 0.0 0.00 0.00 0.00 100 1020.5
20260504045427 58 211 0.0 0.0 0.00 0.00 0.00 100 1020.5
20260504044933 57 305 0.0 0.0 0.00 0.00 0.00 100 1020.3
20260504044422 56 306 0.0 0.0 0.00 0.00 0.00 100 1020.3
20260504043937 56 305 0.0 0.0 0.00 0.00 0.00 100 1020.2
20260504043433 55 300 0.0 0.0 0.00 0.00 0.00 100 1020.1
20260504042924 55 303 0.0 0.0 0.00 0.00 0.00 100 1020.2
20260504042435 55 309 0.0 0.0 0.00 0.00 0.00 100 1020.2
20260504041942 55 307 0.0 0.0 0.00 0.00 0.00 100 1020.0
20260504041436 55 310 0.9 0.0 0.00 0.00 0.00 100 1020.1
20260504040943 55 309 0.9 0.0 0.00 0.00 0.00 86 1020.1
20260504040434 55 308 0.9 0.0 0.00 0.00 0.00 56 1020.0
20260504035941 55 301 0.0 0.0 0.00 0.00 0.00 100 1020.1
20260504035435 56 305 0.0 0.0 0.00 0.00 0.00 100 1019.9
20260504034935 56 305 0.0 0.0 0.00 0.00 0.00 30 1019.9
20260504034431 57 302 0.0 0.0 0.00 0.00 0.00 100 1019.9
20260504033940 57 302 0.0 0.0 0.00 0.00 0.00 100 1019.9
20260504033434 57 306 0.0 0.0 0.00 0.00 0.00 100 1019.9
20260504032927 57 306 0.0 0.0 0.00 0.00 0.00 100 1019.9
20260504032435 57 308 0.0 0.0 0.00 0.00 0.00 100 1019.9
20260504031948 56 305 0.0 0.0 0.00 0.00 0.00 100 1019.9
20260504031440 56 305 0.0 0.0 0.00 0.00 0.00 100 1019.7
20260504030947 56 304 0.0 0.0 0.00 0.00 0.00 100 1019.7
20260504030425 56 310 0.0 0.0 0.00 0.00 0.00 85 1019.8
20260504025935 56 304 0.0 0.0 0.00 0.00 0.00 71 1019.8
20260504025432 57 311 0.9 0.0 0.00 0.00 0.00 100 1019.8
20260504024949 56 302 0.9 0.0 0.00 0.00 0.00 63 1019.7
20260504024440 57 303 0.9 0.0 0.00 0.00 0.00 73 1019.8
20260504023927 58 307 1.7 0.0 0.00 0.00 0.00 100 1019.9
20260504023440 57 302 0.0 0.0 0.00 0.00 0.00 100 1019.9
20260504022935 57 307 0.0 0.0 0.00 0.00 0.00 99 1020.0
20260504022440 57 306 0.0 0.0 0.00 0.00 0.00 96 1020.0
20260504021936 57 306 0.0 0.0 0.00 0.00 0.00 82 1019.9
20260504021455 57 302 0.0 0.0 0.00 0.00 0.00 78 1020.1
20260504021007 57 303 0.0 0.0 0.00 0.00 0.00 55 1019.9
20260504020430 57 302 0.0 0.0 0.00 0.00 0.00 100 1020.1
20260504015928 57 303 0.0 0.0 0.00 0.00 0.00 100 1019.9
20260504015437 57 302 0.0 0.0 0.00 0.00 0.00 100 1020.0
20260504014933 57 305 0.0 0.0 0.00 0.00 0.00 100 1019.8
20260504014432 57 304 0.0 0.0 0.00 0.00 0.00 100 1019.9
20260504013937 57 301 0.0 0.0 0.00 0.00 0.00 100 1019.8
20260504013437 57 306 0.9 0.0 0.00 0.00 0.00 100 1019.7
20260504012952 57 302 0.9 0.0 0.00 0.00 0.00 100 1019.8
20260504012439 57 305 1.7 0.0 0.00 0.00 0.00 93 1019.9
20260504011936 57 299 1.7 0.0 0.00 0.00 0.00 85 1019.8
20260504011451 58 302 0.0 0.0 0.00 0.00 0.00 92 1019.9
20260504011006 58 300 1.7 0.0 0.00 0.00 0.00 62 1019.8
20260504010448 58 297 0.9 0.0 0.00 0.00 0.00 30 1019.8
20260504005928 59 300 1.7 0.0 0.00 0.00 0.00 28 1019.8
20260504005457 59 299 0.9 0.0 0.00 0.00 0.00 30 1019.9
20260504004940 59 302 1.7 0.0 0.00 0.00 0.00 24 1019.9
20260504004429 60 296 1.7 0.0 0.00 0.00 0.00 30 1019.9
20260504003950 60 296 0.0 0.0 0.00 0.00 0.00 65 1019.9
20260504003436 60 298 0.0 0.0 0.00 0.00 0.00 97 1019.9
20260504002924 60 304 0.0 0.0 0.00 0.00 0.00 83 1019.9
20260504002429 59 298 0.0 0.0 0.00 0.00 0.00 51 1019.9
20260504001936 59 303 0.0 0.0 0.00 0.00 0.00 32 1019.9
20260504001502 60 302 0.0 0.0 0.00 0.00 0.00 29 1019.9
20260504000946 60 302 0.0 0.0 0.00 0.00 0.00 22 1019.9
20260504000426 60 302 0.0 0.0 0.00 0.00 0.00 14 1020.0
20260503235934 60 298 0.0 0.0 0.00 0.00 0.00 3 1019.9
20260503235437 60 295 1.7 0.0 0.00 0.00 0.00 100 1019.9
20260503234945 61 302 1.7 0.0 0.00 0.00 0.00 100 1020.1
20260503234434 62 240 0.0 0.0 0.00 0.00 0.00 1 1020.0
20260503233948 62 207 0.0 0.0 0.00 0.00 0.00 11 1020.1
20260503233440 62 212 0.9 0.0 0.00 0.00 0.00 9 1020.2
20260503232943 62 213 1.7 0.0 0.00 0.00 0.00 11 1020.0
20260503232424 62 217 0.0 0.0 0.00 0.00 0.00 14 1019.9
20260503231941 62 209 2.6 0.0 0.00 0.00 0.00 15 1020.0
20260503231455 62 221 1.7 0.0 0.00 0.00 0.00 16 1019.9
20260503230947 62 202 2.6 0.0 0.00 0.00 0.00 16 1020.1
20260503230439 62 223 6.1 0.0 0.00 0.00 0.00 17 1020.0
20260503225929 62 200 4.3 0.0 0.00 0.00 0.00 18 1020.1
20260503225501 63 212 1.7 0.0 0.00 0.00 0.00 18 1020.2
20260503224956 62 199 4.3 0.0 0.00 0.00 0.00 14 1020.2
20260503224427 63 205 3.5 0.0 0.00 0.00 0.00 13 1020.2
20260503223942 62 198 3.5 0.0 0.00 0.00 0.00 15 1020.2
20260503223436 62 189 4.3 0.0 0.00 0.00 0.00 15 1020.1
20260503222926 63 193 5.2 0.0 0.00 0.00 0.00 12 1020.2
20260503222439 63 181 6.1 0.0 0.00 0.00 0.00 9 1020.1
20260503221936 63 180 6.1 0.0 0.00 0.00 0.00 5 1020.1
20260503221436 63 177 4.3 0.0 0.00 0.00 0.00 1 1020.1
20260503220945 63 162 3.5 0.0 0.00 0.00 0.00 100 1020.0
20260503220459 63 199 4.3 0.0 0.00 0.00 0.00 100 1020.0
20260503215957 63 208 3.5 0.0 0.00 0.00 0.00 100 1019.9
20260503215434 63 222 2.6 0.0 0.00 0.00 0.00 100 1020.0
20260503214930 63 248 0.0 0.0 0.00 0.00 0.00 100 1019.9
20260503214426 63 241 0.0 0.0 0.00 0.00 0.00 100 1019.8
20260503213939 63 246 0.0 0.0 0.00 0.00 0.00 100 1019.7
20260503213436 64 246 0.9 0.0 0.00 0.00 0.00 100 1019.8
20260503212930 64 248 0.9 0.0 0.00 0.00 0.00 100 1019.6
20260503212436 63 242 1.7 0.0 0.00 0.00 0.00 100 1019.6
20260503211926 64 256 1.7 0.0 0.00 0.00 0.00 100 1019.7
20260503211433 64 311 0.0 0.0 0.00 0.00 0.00 100 1019.7
20260503210945 64 20 0.0 0.0 0.00 0.00 0.00 100 1019.8
20260503210440 64 23 0.0 0.0 0.00 0.00 0.00 100 1019.7
20260503205934 64 21 0.0 0.0 0.00 0.00 0.00 100 1019.7
20260503205441 64 20 0.0 0.0 0.00 0.00 0.00 100 1019.7
20260503204954 64 23 0.0 0.0 0.00 0.00 0.00 100 1019.8
20260503204456 64 23 0.9 0.0 0.00 0.00 0.00 100 1019.8
20260503203926 64 24 0.0 0.0 0.00 0.00 0.00 100 1019.8
20260503203436 64 23 1.7 0.0 0.00 0.00 0.00 100 1019.8
20260503202930 64 30 1.7 0.0 0.00 0.00 0.00 100 1019.8
20260503202443 64 9 2.6 0.0 0.00 0.00 0.00 100 1019.7
20260503201936 64 338 3.5 0.0 0.00 0.00 0.00 100 1019.7
20260503201455 64 23 3.5 0.0 0.00 0.00 0.00 100 1019.7
20260503200946 64 27 1.7 0.0 0.00 0.00 0.00 100 1019.7
20260503200435 64 20 4.3 0.0 0.00 0.00 0.00 100 1019.7
20260503195928 64 20 1.7 0.0 0.00 0.00 0.00 100 1019.7
20260503195438 64 329 4.3 0.0 0.00 0.00 0.00 100 1019.5
20260503194949 65 305 3.5 0.0 0.00 0.00 0.00 100 1019.6
20260503194426 64 348 5.2 0.0 0.00 0.00 0.00 100 1019.7
20260503193956 65 13 3.5 0.0 0.00 0.00 0.00 100 1019.7
20260503193425 64 279 1.7 0.0 0.00 0.00 0.00 100 1019.5
20260503192938 64 271 5.2 0.0 0.00 0.00 0.00 100 1019.6
20260503192434 65 317 3.5 0.0 0.00 0.00 0.00 100 1019.4
20260503191941 64 312 3.5 0.0 0.00 0.00 0.00 100 1019.3
20260503191456 64 15 3.5 0.0 0.00 0.00 0.00 100 1019.3
20260503190946 65 330 3.5 0.0 0.00 0.00 0.00 100 1019.3
20260503190438 65 330 3.5 0.0 0.00 0.00 0.00 100 1019.3
20260503185933 65 301 2.6 0.0 0.00 0.00 0.00 100 1019.3
20260503185438 65 310 4.3 0.0 0.00 0.00 0.00 100 1019.3
20260503185013 65 323 5.2 0.0 0.00 0.00 0.00 100 1019.2
20260503184424 65 316 2.6 0.0 0.00 0.00 0.00 100 1019.2
20260503183934 65 291 1.7 0.0 0.00 0.00 0.00 100 1019.1
20260503183445 65 308 1.7 0.0 0.00 0.00 0.00 100 1019.1
20260503182958 65 354 3.5 0.0 0.00 0.00 0.00 100 1019.1
20260503182505 65 47 1.7 0.0 0.00 0.00 0.00 100 1019.1
20260503181937 65 35 0.9 0.0 0.00 0.00 0.00 100 1019.1
20260503181434 66 8 1.7 0.0 0.00 0.00 0.00 100 1019.2
20260503181007 66 26 0.0 0.0 0.00 0.00 0.00 100 1019.1
20260503180455 66 35 0.0 0.0 0.00 0.00 0.00 100 1019.1
20260503175944 66 29 0.0 0.0 0.00 0.00 0.00 100 1018.8
20260503175429 66 40 0.0 0.0 0.00 0.00 0.00 100 1018.8
20260503174956 66 30 0.0 0.0 0.00 0.00 0.00 100 1018.8
20260503174442 66 28 0.0 0.0 0.00 0.00 0.00 100 1018.8
20260503173929 66 23 0.0 0.0 0.00 0.00 0.00 100 1018.8
20260503173444 66 20 0.0 0.0 0.00 0.00 0.00 100 1018.8
20260503172932 66 22 0.9 0.0 0.00 0.00 0.00 100 1018.6
20260503172441 66 318 0.0 0.0 0.00 0.00 0.00 100 1018.8
20260503171944 66 17 1.7 0.0 0.00 0.00 0.00 100 1018.7
20260503171440 66 28 0.0 0.0 0.00 0.00 0.00 100 1018.6
20260503170947 66 41 0.0 0.0 0.00 0.00 0.00 100 1018.5
20260503170438 66 135 0.9 0.0 0.00 0.00 0.00 1 1018.5
20260503150946 68 359 7.0 0.0 0.00 0.00 0.00 100 1019.1
20260503150423 68 244 0.0 0.0 0.00 0.00 0.00 100 1019.0
20260503130952 69 49 0.9 0.0 0.00 0.00 0.00 100 1020.3
20260503130428 69 265 1.7 0.0 0.00 0.00 0.00 100 1020.4
20260503110454 68 321 1.7 0.0 0.00 0.00 0.00 67 1020.8
20260503090438 66 337 0.0 0.0 0.00 0.00 0.00 70 1021.6
20260503081505 67 330 4.3 0.0 0.00 0.00 0.00 71 1021.5
20260503080954 67 337 0.9 0.0 0.00 0.00 0.00 71 1021.5
20260503080435 67 337 2.6 0.0 0.00 0.00 0.00 72 1021.5
20260503072944 65 153 0.0 0.0 0.00 0.00 0.00 63 1021.8
20260503072429 65 146 0.0 0.0 0.00 0.00 0.00 64 1021.8
20260503071940 65 160 1.7 0.0 0.00 0.00 0.00 66 1021.8
20260503071437 65 119 1.7 0.0 0.00 0.00 0.00 68 1021.8
20260503070947 65 112 0.9 0.0 0.00 0.00 0.00 70 1021.9
20260503070444 65 63 0.0 0.0 0.00 0.00 0.00 70 1021.9
20260503054937 59 55 2.6 0.0 0.00 0.00 0.00 87 1021.9
20260503054433 59 47 2.6 0.0 0.00 0.00 0.00 87 1021.9
20260503053941 59 54 1.7 0.0 0.00 0.00 0.00 88 1021.9
20260503053452 58 57 1.7 0.0 0.00 0.00 0.00 88 1021.9
20260503052938 58 61 1.7 0.0 0.00 0.00 0.00 89 1022.0
20260503052428 58 60 2.6 0.0 0.00 0.00 0.00 90 1021.8
20260503051938 57 57 2.6 0.0 0.00 0.00 0.00 91 1021.8